Location: Newark
(45.4041°N, 17.9426°E)
Time: 06:48:09
(UTC+00:00)

Envisat - Pass Details

Date: 29 September 2019
Orbit: 764 x 766 km, 98.1° (Epoch: 15 October)

Event Time Altitude Azimuth Distance (km) Brightness Sun altitude
Rises 17:08:17 0° 175° (S) 3,218 6.1 -7.0°
Reaches altitude 10° 17:10:36 10° 178° (S) 2,296 5.4 -7.4°
Maximum altitude 17:15:36 61° 259° (W) 868 3.7 -8.3°
Drops below altitude 10° 17:20:39 10° 340° (NNW) 2,312 5.8 -9.2°
Sets 17:23:00 0° 344° (NNW) 3,243 6.6 -9.6°
